shoulder
new_line
new_line
first
second
third
Al di la della Luna; Beyond the Moon; Astrophotography; Astrofotografia; Danilo Pivato
 
 
         
         
2024
Orbital Elements

Epoch 2024 March. 31.0 TT = JDT 2460400.5
T 2024 January  25.77101 TT                                                     Rudenko
q   1.3988578            (2000.0)                        P                      Q
n   0.13143719    Peri.    216.32175   -0.15945390     -0.98531547   
a   3.8311034      Node   242.92551   +0.92113234    -0.12625072
e    0.6348682     Incl.         3.93189   +0.35509108    -0.11495295
P   7.50
Return in the future: 2031
       
Orbit Diagram
         
2024.05.09
         
         
         
         
         
         
         
         
         
         
         
         

 

       
 
Since: 01/01/2004
 
       
 
Since: 01/11/2010